Miscellaneous Local Product
Issued by NWS North Platte, NE

Home | Current Version | Previous Version | Graphics & Text | Print | Product List | Glossary On
Versions: 1 2 3 4 5 6 7 8 9 10 11 12 13 14 15 16 17 18 19 20 21 22 23 24 25 26 27 28 29 30 31 32 33 34 35 36 37 38 39 40 41 42 43 44 45 46 47 48 49 50
000
AXUS43 KLBF 240810
MISLBF


WESTERN AND NORTH CENTRAL NEBRASKA HOURLY WEATHER ROUNDUP
NATIONAL WEATHER SERVICE NORTH PLATTE NE
300 AM CDT FRI OCT 24 2014

***STATIONS NOT REPORTING VARIABLES SUCH AS SKY/WEATHER OR
PRESSURE ARE PROVIDED BY THE NEBRASKA DEPARTMENT OF
ROADS...RAWS...AND APRS NETWORKS...AND ARE NOT UNDER
NATIONAL WEATHER SERVICE QUALITY CONTROL***

...OBSERVATIONS IN AND NEAR THE EASTERN PANHANDLE OF NEBRASKA...

CITY           SKY/WX    TMP DP  RH WIND       PRES   REMARKS
PINE RIDGE     CLOUDY    37  34  89 CALM      29.95R
CHADRON        CLOUDY    39  34  82 CALM      29.94S
ALLIANCE       MOCLDY    45  32  60 CALM      29.99S
SIDNEY         MOCLDY    47  33  58 SW9       30.06S
WHITECLAY        N/A     38  32  77 S6          N/A  WCI  34
RUSHVILLE        N/A     38  32  80 S6          N/A  WCI  34
CRESCENT LAKE    N/A     51  33  50 CALM        N/A
LISCO            N/A     43  34  72 CALM        N/A
BIG SPRINGS      N/A     45  37  75 W3          N/A
LEWELLEN         N/A     42  38  84 S5          N/A
$$

...OBSERVATIONS IN NORTH CENTRAL NEBRASKA...

CITY           SKY/WX    TMP DP  RH WIND       PRES   REMARKS
VALENTINE      MOCLDY    40  35  83 W6        29.93R
THEDFORD       MOCLDY    49  38  66 CALM      29.96S
AINSWORTH      MOCLDY    46  38  71 W5        29.92S
O`NEILL        MOCLDY    54  53  96 SW9       29.90S
ORD            CLEAR     56  53  90 S6        29.93F
BROKEN BOW     CLEAR     55  51  86 SW3       29.95F
BROWNLEE         N/A     53  36  51 W5          N/A
SPRINGVIEW       N/A     44  40  87 CALM        N/A
BREWSTER         N/A     58  51  78 W10         N/A
ROSE             N/A     53  52  97 S7          N/A
NEWPORT          N/A     50  48  93 SW7         N/A
SARGENT          N/A     52  50  92 CALM        N/A
COMSTOCK         N/A     60  58  92 SW10        N/A
CHAMBERS         N/A     55  53  94 S6          N/A
EWING            N/A     56  54  92 S3          N/A
$$

...OBSERVATIONS IN SOUTHWEST NEBRASKA AND FAR NORTHEAST COLORADO...

CITY           SKY/WX    TMP DP  RH WIND       PRES   REMARKS
WRAY           FAIR      54  40  58 SW12      30.05S
HOLYOKE        FAIR      54  39  58 SW7       30.04S
IMPERIAL       PTCLDY    49  39  68 W8        30.02S
OGALLALA       CLEAR     42  37  80 CALM      30.01S
NORTH PLATTE   PTCLDY    46  44  93 W5        29.99S
MCCOOK         PTCLDY    54  51  90 W9        30.01F FOG
LEXINGTON      PTCLDY    58  55  89 CALM      29.99R
PAXTON           N/A     46  38  73 CALM        N/A
SUTHERLAND       N/A     44  40  83 W7          N/A
BRADY            N/A     52  49  90 CALM        N/A
GOTHENBURG       N/A     57  51  81 NW3         N/A
CALLAWAY         N/A     52  50  93 S6          N/A
$$

...SOME WEATHER OBSERVATIONS FROM AROUND THE REGION...

CITY           SKY/WX    TMP DP  RH WIND       PRES   REMARKS
DENVER         CLOUDY    56  30  37 S9        30.13S
LARAMIE        MOCLDY    51  24  34 SW13      30.21R
CHEYENNE       CLOUDY    50  30  46 W12       30.16R
SCOTTSBLUFF    CLOUDY    45  37  73 CALM      30.02R
RAPID CITY     CLOUDY    47  33  58 NW6       29.91F
PIERRE         MOCLDY    42  35  76 W5        29.85F
WINNER         FAIR      53  35  50 SW7       29.88S
SIOUX FALLS    MOCLDY    55  50  83 S12       29.87F
GRAND ISLAND   CLEAR     58  55  90 SW12      29.97F
KANSAS CITY    MOCLDY    55  55 100 S9        30.07S FOG
WICHITA        PTCLDY    59  56  89 S6        30.07R
HAYS           CLEAR     57  52  82 SW7       30.04S
LIBERAL        CLEAR     57  52  82 SW6       30.10F
GOODLAND       CLEAR     55  51  86 SW10      30.08S
$$



USA.gov is the U.S. government's official web portal to all federal, state and local government web resources and services.